Weather in Gnezdychev

Ukraine / Lviv District     49°20′13″N   24°06′19″E
temp.,
°C
wind,
m/s
gust,
m/s
humid.,
%
clouds,
%
prec.,
mm/h
press.,
hPa
HPBL,
m
16 october, sat
sat1600:00+5wsw22675 0.0 101914
03:00+4sw22685 0.0 101814
06:00+5w226099 0.0 101812
09:00+9w3858100 0.0 1019319
12:00+11nw5662100 0.0 10201124
15:00+13nw454849 0.0 10191345
18:00+10nw33607 0.0 102047
21:00+5wnw46835 0.0 1022100
17 october, sun
sun1700:00+3wnw22945 0.0 102337
03:00+2wnw22945 0.0 102316
06:00+2w11935 0.0 102310
09:00+3sw11885 0.0 102353
12:00+9nw12625 0.0 1022646
15:00+12nnw235021 0.0 10201038
18:00+9nne22595 0.0 102014
21:00+6ssw1171100 0.0 102110
18 october, mon
mon1800:00+5ssw2278100 0.0 102211
03:00+5sw227887 0.0 102215
06:00+6wsw237499 0.0 102157
09:00+7w2575100 0.0 1022147
12:00+11nw5758100 0.0 1023945
15:00+11wnw6755100 0.0 10221283
18:00+9wnw476730 0.0 1023169
21:00+9w4968100 0.0 1023467
19 october, tue
tue1900:00+10w5107099 0.0 1023703
03:00+9wnw71379100 0.5 10231086
06:00+8nw61188100 1.1 1025782
09:00+7n258299 1.3 1028335
12:00+9nnw2360100 0.0 1029874
15:00+11nnw33435 0.0 10281196
18:00+8nne224617 0.0 102712
21:00+5se22475 0.0 102913
20 october, wed
wed2000:00+4sse2263100 0.0 102829
03:00+4se3480100 0.0 102869
06:00+5sse3479100 0.0 102666
09:00+6sse3574100 0.0 102592
12:00+14ssw4748100 0.0 1023881
15:00+16sw584398 0.0 10201063
18:00+13ssw365299 0.0 1018191
21:00+10s3464100 0.0 101762